Regional Weather Roundup
Issued by NWS

Home | Current Version | Previous Version | Text Only | Print | Product List | Glossary Off
Versions: 1 2 3 4 5 6 7 8 9 10 11 12 13 14 15 16 17 18 19 20 21 22 23 24 25 26 27 28 29 30 31 32 33 34 35 36 37 38 39 40 41 42 43 44 45 46 47 48 49 50

000
ASUS43 KBIS 162020
RWRND

NORTH DAKOTA REGIONAL WEATHER ROUNDUP
NATIONAL WEATHER SERVICE BISMARCK ND
300 PM CDT TUE SEP 16 2014

NOTE: "FAIR" INDICATES FEW OR NO CLOUDS BELOW 12,000 FEET WITH NO
SIGNIFICANT WEATHER AND/OR OBSTRUCTIONS TO VISIBILITY.


NDZ001>003-009>011-017-162100-
NORTHWEST NORTH DAKOTA

CITY           SKY/WX    TMP DP  RH WIND       PRES   REMARKS
WILLISTON      SUNNY     72  33  24 E5        29.96F
MINOT          SUNNY     71  43  36 E7        29.94F
MINOT AFB      SUNNY     70  44  37 VRB2      29.94F
$$

NDZ018>021-031>035-040>046-162100-
SOUTHWEST NORTH DAKOTA

CITY           SKY/WX    TMP DP  RH WIND       PRES   REMARKS
BISMARCK       SUNNY     73  47  39 E5        29.95F
DICKINSON      SUNNY     73  46  38 NE6       29.95F
GARRISON         N/A     70  46  42 VRB3      29.95F
HETTINGER ARPT SUNNY     74  46  36 CALM      29.96F
$$

NDZ004>008-012>016-024-026-027-054-162100-
NORTHEAST NORTH DAKOTA

CITY           SKY/WX    TMP DP  RH WIND       PRES   REMARKS
GRAND FORKS    MOSUNNY   73  41  31 SW6       29.95F
GRND FRKS AFB  SUNNY     74  42  30 W6        29.97F
DEVILS LAKE    SUNNY     72  41  33 SW7       29.95F
$$

NDZ022-023-025-028>030-036>039-047>053-162100-
SOUTHEAST NORTH DAKOTA

CITY           SKY/WX    TMP DP  RH WIND       PRES   REMARKS
FARGO          SUNNY     71  40  32 VRB3      29.99F
JAMESTOWN      SUNNY     68  45  43 SE3       29.97F
$$



USA.gov is the U.S. government's official web portal to all federal, state and local government web resources and services.